Погода в Болехове

Украина / Ивано-Франковская область     49˚04′03″N   23˚50′57″E
темп.,
°C
ветер,
м/с
пор.,
м/с
влажн.,
%
обл.,
%
осадки,
мм/ч
давл.,
гПа
погр.,
м
6 декабря, вс
вс623:00+4˚ю22840 0.0 101925
02:00+3˚ююв22870 0.0 102026
05:00+2˚юв22890 0.0 101928
08:00+1˚вюв22930 0.0 101930
11:00+3˚в239329 0.0 1019160
14:00+4˚вюв349045 0.0 1018342
17:00+2˚вюв249591 0.0 1018197
20:00+1˚вюв249594 0.0 1018209
7 декабря, пн
пн723:00вюв249594 0.0 1018190
02:00вюв249592 0.0 1017212
05:00−1˚вюв249590 0.0 1016234
08:00−1˚вюв249489 0.0 1016224
11:00−1˚вюв358792 0.0 1016332
14:00вюв358179 0.0 1015357
17:00−3˚вюв358810 0.0 1016234
20:00−4˚вюв359026 0.0 1016327
8 декабря, вт
вт823:00−4˚вюв348992 0.0 1017317
02:00−4˚вюв238886 0.0 1017170
05:00−4˚вюв238691 0.0 1016154
08:00−3˚вюв228695 0.0 101794
11:00−1˚в2280100 0.0 1018200
14:00в228098 0.0 1018215
17:00−2˚в2288100 0.0 1018109
20:00−2˚вюв2293100 0.1 1019109
9 декабря, ср
ср923:00−3˚в1297100 0.0 101975
02:00−3˚вюв1197100 0.0 101950
05:00−4˚в129877 0.0 101981
08:00−3˚вюв229583 0.0 1019146
11:00−2˚в238897 0.0 1018305
14:00−1˚в238398 0.0 1016367
17:00−2˚вюв239194 0.0 1016310
20:00−2˚вюв239395 0.0 1015258
10 декабря, чт
чт1023:00−3˚юв129496 0.0 101596
02:00−2˚вюв119298 0.0 101438
05:00юв1179100 0.0 101228
08:00ююв1185100 0.9 101225
11:00+2˚ю118799 0.2 101334
14:00+5˚в118662 0.2 101248
17:00+1˚ююв119196 0.0 101322
20:00+1˚ссв009398 0.0 101222